Tracking 29892 objects as of 21-Nov-2024
HD Live streaming from Space Station
objects crossing your sky now

DELTA 2 R/B(1)

Track DELTA 2 R/B(1) now!
10-day predictions
DELTA 2 R/B(1) is classified as:


NORAD ID: 20453
Int'l Code: 1990-008B
Perigee: 395.2 km
Apogee: 637.5 km
Inclination: 35.6 °
Period: 94.8 minutes
Semi major axis: 6887 km
RCS: 9.8525 m2 (large)
Launch date: January 24, 1990
Source: United States (US)
Launch site: AIR FORCE EASTERN TEST RANGE (AFETR)

Note: This is a ROCKET BODY
Your satellite tracking list
Your tracking list is empty




NASA's NSSDC Master Catalog

Two Line Element Set (TLE):
1 20453U 90008B   24325.39912185  .00037448  00000-0  11519-2 0  9990
2 20453  35.6179 311.6677 0175908 306.5570  51.9077 15.18882334853204
Source of the keplerian elements: AFSPC